User: anonymous   Login
Location: Unspecified
(0.0000°N, 0.0000°E)
Time: 20:42:20
(UTC+00:00)
Language:

STARLINK-4371 - Orbit

View from above orbital plane
View from above orbital plane
View from above satellite
View from above satellite

Ground track
Ground track

The orbit is defined by the following mean orbital elements,

1 53232U          26145.40672272 +.00000000 +00000-0 +20549-4 0 00000
2 53232  97.4504 205.3137 0000991 155.2599 204.8676 15.05649375    00
Epoch (UTC): 25 May 2026 09:45:40
Eccentricity: 0.0000991
inclination: 97.4504°
perigee height: 549 km
apogee height: 550 km
right ascension of ascending node: 205.3137°
argument of perigee: 155.2599°
revolutions per day: 15.05649375
mean anomaly at epoch: 204.8676°

The dashed part of the orbit path shows where the satellite is in the earth's shadow,  

DLR